Location: *
(51.2167°N, 10.0667°E)
Time: 04:46:11
(UTC+00:00)

NOSS 3-1 (A) - Pass Details

Date: 12 December 2019
Orbit: 766 x 1446 km, 63.4° (Epoch: 16 January)

Event Time Altitude Azimuth Distance (km) Brightness Sun altitude
Rises 16:32:29 0° 305° (NW) 3,703 7.0 -11.7°
Reaches altitude 10° 16:35:09 10° 314° (NW) 2,850 6.3 -12.1°
Maximum altitude 16:41:27 37° 21° (NNE) 1,723 4.5 -13.0°
Enters shadow 16:46:45 18° 79° (E) 2,715 5.2 -13.8°
